McCook, NE

11:39 PM CST on December 12, 2017 (GMT -0600)
McCook Municipal

Weather History for KMCK - May, 2014

Change the Weather History Date:

Thursday, May 15, 2014

  Actual Average Record
Temperature  
Mean Temperature 52 °F 59 °F  
Max Temperature 66 °F 73 °F 101 °F (1931)
Min Temperature 37 °F 46 °F 30 °F (1983)
Degree Days  
Heating Degree Days 14    
Moisture  
Dew Point 27 °F    
Average Humidity 46    
Maximum Humidity 89    
Minimum Humidity 16    
Precipitation  
Precipitation T in 0.09 in 0.60 in (2003)
Month to date precipitation 0.11 1.42  
Year to date precipitation 1.97 6.22  
Sea Level Pressure  
Sea Level Pressure 30.21 in    
Wind  
Wind Speed 9 mph (NW)    
Max Wind Speed 21 mph    
Max Gust Speed 33 mph    
Visibility 10 miles    
Events Rain    
T = Trace of Precipitation, MM = Missing Value Source: NWS Daily Summary

Daily Weather History Graph

Daily Weather History Graph

Search for Another Location

Airport or City:

Trip Planner

Search our weather history database for the weather conditions in past years. The results will help you decide how hot, cold, wet, or windy it might be!

Date:

Astronomy

May. 15, 2014 Rise Set
Actual Time 6:26 AM CDT 8:51 PM CDT
Civil Twilight 5:55 AM CDT 9:22 PM CDT
Nautical Twilight 5:17 AM CDT 10:00 PM CDT
Astronomical Twilight 4:35 AM CDT 10:43 PM CDT
Moon 10:01 PM CDT (5/15) 7:14 AM CDT (5/15)
Length of Visible Light 15h 26m
Length of Day
14h 24m
Full, 99% of the Moon is Illuminated
May 15
Full
May 21
Last Quarter
May 28
New
Jun 5
First Quarter
Jun 12
Full

Hourly Weather History & Observations

Time (CDT) Temp. Windchill Dew Point Humidity Pressure Visibility Wind Dir Wind Speed Gust Speed Precip Events Conditions
12:53 AM 43.0 °F 38.2 °F 35.1 °F 74% 30.27 in 10.0 mi NNW 8.1 mph - N/A   Partly Cloudy
1:53 AM 41.0 °F 35.8 °F 34.0 °F 76% 30.27 in 10.0 mi NNW 8.1 mph - N/A   Overcast
2:53 AM 41.0 °F 36.4 °F 33.1 °F 73% 30.27 in 10.0 mi NNW 6.9 mph - N/A   Overcast
3:53 AM 41.0 °F 38.0 °F 28.0 °F 60% 30.28 in 10.0 mi NNE 4.6 mph - N/A   Mostly Cloudy
4:53 AM 39.9 °F 35.8 °F 28.9 °F 65% 30.27 in 10.0 mi NW 5.8 mph - N/A   Mostly Cloudy
5:53 AM 37.9 °F 33.5 °F 34.0 °F 86% 30.27 in 10.0 mi WNW 5.8 mph - 0.00 in   Overcast
6:53 AM 39.0 °F 33.4 °F 36.0 °F 89% 30.27 in 7.0 mi SW 8.1 mph - 0.00 in Rain Light Rain
7:53 AM 39.0 °F 32.8 °F 35.1 °F 86% 30.26 in 9.0 mi WSW 9.2 mph - 0.00 in   Overcast
8:53 AM 45.0 °F 40.6 °F 36.0 °F 71% 30.26 in 10.0 mi WSW 8.1 mph - N/A   Clear
9:53 AM 50.0 °F - 37.0 °F 61% 30.25 in 10.0 mi WSW 8.1 mph - N/A   Clear
10:53 AM 55.0 °F - 33.1 °F 43% 30.23 in 10.0 mi NW 9.2 mph - N/A   Clear
11:53 AM 55.9 °F - 30.0 °F 37% 30.23 in 10.0 mi NNW 9.2 mph - N/A   Scattered Clouds
12:53 PM 61.0 °F - 26.1 °F 26% 30.21 in 10.0 mi NNW 11.5 mph 25.3 mph N/A   Scattered Clouds
2:53 PM 63.0 °F - 21.0 °F 20% 30.19 in 10.0 mi NW 20.7 mph - N/A   Mostly Cloudy
3:53 PM 64.9 °F - 21.9 °F 19% 30.16 in 10.0 mi NNW 10.4 mph 20.7 mph N/A   Overcast
4:53 PM 64.0 °F - 19.0 °F 18% 30.15 in 10.0 mi NNW 19.6 mph 33.4 mph N/A   Mostly Cloudy
5:41 PM 63.0 °F - 17.1 °F 17% 30.14 in 10.0 mi NW 17.3 mph - N/A   Scattered Clouds
5:53 PM 62.1 °F - 17.1 °F 18% 30.15 in 10.0 mi NNW 17.3 mph 27.6 mph N/A   Partly Cloudy
6:53 PM 63.0 °F - 16.0 °F 16% 30.14 in 10.0 mi NNW 15.0 mph - N/A   Clear
7:53 PM 61.0 °F - 18.0 °F 19% 30.14 in 10.0 mi NNW 15.0 mph - N/A   Clear
8:53 PM 54.0 °F - 21.0 °F 28% 30.14 in 10.0 mi North 5.8 mph - N/A   Clear
9:53 PM 52.0 °F - 21.0 °F 30% 30.15 in 10.0 mi North 4.6 mph - N/A   Clear
10:53 PM 46.0 °F 44.8 °F 21.9 °F 39% 30.16 in 10.0 mi ESE 3.5 mph - N/A   Clear
11:53 PM 44.1 °F 42.5 °F 23.0 °F 43% 30.16 in 10.0 mi SE 3.5 mph - N/A   Clear